CW6666 Weather Reports


Display with metric or nautical units.
time (UTC)temp
F
wind
direction
speed
MPH
gust
MPH
rain 1hr
in
rain 24hr
in
rain mn
in
humidity
%
barometer
mb
20170722123253 85 75 9.0 11.0 0.00 0.05 0.01 86 1008.7
20170722122753 85 83 7.0 11.0 0.00 0.05 0.01 85 1008.7
20170722122253 85 78 8.0 11.0 0.00 0.05 0.01 86 1008.7
20170722121753 85 72 7.0 11.0 0.00 0.05 0.01 86 1008.8
20170722121253 85 67 7.0 11.0 0.00 0.05 0.01 86 1008.8
20170722120753 85 69 9.0 10.0 0.00 0.05 0.01 86 1008.8
20170722120254 85 71 9.0 10.0 0.00 0.05 0.01 86 1009.0
20170722115753 85 78 7.0 10.0 0.00 0.05 0.01 86 1009.0
20170722115253 85 74 5.0 10.0 0.00 0.05 0.01 86 1009.0
20170722114753 85 69 9.0 11.0 0.00 0.05 0.01 86 1009.0
20170722114253 85 74 7.0 11.0 0.00 0.05 0.01 86 1009.0
20170722113753 85 81 10.0 11.0 0.00 0.05 0.01 86 1009.0
20170722113253 85 84 9.0 11.0 0.00 0.05 0.01 86 1008.8
20170722112753 85 79 9.0 11.0 0.00 0.05 0.01 86 1008.8
20170722112253 85 75 9.0 12.0 0.00 0.05 0.01 86 1008.8
20170722111753 85 80 7.0 12.0 0.00 0.05 0.01 86 1008.7
20170722111253 85 74 11.0 11.0 0.00 0.05 0.01 86 1008.7
20170722110753 85 67 9.0 11.0 0.00 0.05 0.01 86 1008.7
20170722110253 85 75 10.0 11.0 0.00 0.05 0.01 86 1008.4
20170722105753 85 76 7.0 11.0 0.00 0.05 0.01 86 1008.4
20170722105253 85 78 9.0 12.0 0.00 0.05 0.01 86 1008.4
20170722104753 85 79 9.0 12.0 0.00 0.05 0.01 87 1008.3
20170722104253 85 79 9.0 12.0 0.00 0.05 0.01 86 1008.3
20170722103753 85 80 10.0 12.0 0.00 0.05 0.01 86 1008.3
20170722103253 85 89 9.0 12.0 0.00 0.05 0.01 87 1008.1
20170722102753 85 72 9.0 12.0 0.00 0.05 0.01 85 1008.1
20170722102253 85 52 10.0 11.0 0.00 0.05 0.01 86 1008.1
20170722101753 85 71 9.0 11.0 0.00 0.05 0.01 85 1008.1
20170722101253 85 65 8.0 13.0 0.00 0.05 0.01 85 1008.1
20170722100753 85 73 10.0 13.0 0.00 0.05 0.01 85 1008.1
20170722100253 85 69 9.0 12.0 0.00 0.05 0.01 85 1007.9
20170722095753 85 68 9.0 13.0 0.00 0.05 0.01 84 1007.9
20170722095253 85 65 10.0 13.0 0.00 0.05 0.01 84 1007.9
20170722094753 85 70 8.0 12.0 0.00 0.05 0.01 84 1008.2
20170722094253 85 75 10.0 12.0 0.00 0.05 0.01 83 1008.2
20170722093753 85 76 10.0 11.0 0.00 0.05 0.01 83 1008.2
20170722093253 85 69 10.0 12.0 0.00 0.05 0.01 83 1007.7
20170722092753 85 76 11.0 12.0 0.00 0.05 0.01 83 1007.7
20170722092253 85 77 10.0 12.0 0.00 0.05 0.01 82 1007.7
20170722091753 85 67 11.0 12.0 0.00 0.05 0.01 83 1007.7
20170722091253 85 67 9.0 12.0 0.00 0.05 0.01 84 1007.7
20170722090753 85 76 11.0 13.0 0.00 0.05 0.01 84 1007.7
20170722090253 85 66 8.0 13.0 0.00 0.05 0.01 84 1007.3
20170722085753 85 78 9.0 12.0 0.00 0.05 0.01 84 1007.3
20170722085253 85 67 7.0 12.0 0.00 0.05 0.01 84 1007.3
20170722084753 85 61 10.0 12.0 0.00 0.05 0.01 84 1007.2
20170722084253 85 76 9.0 11.0 0.00 0.05 0.01 83 1007.2
20170722083753 85 63 10.0 11.0 0.00 0.05 0.01 83 1007.2
20170722083253 85 69 8.0 10.0 0.00 0.05 0.01 83 1007.2
20170722082753 85 57 9.0 11.0 0.00 0.05 0.01 83 1007.2
20170722082253 85 69 9.0 11.0 0.00 0.05 0.01 83 1007.2
20170722081753 85 63 9.0 11.0 0.00 0.05 0.01 83 1007.1
20170722081253 85 76 10.0 12.0 0.00 0.05 0.01 83 1007.1
20170722080753 85 74 11.0 12.0 0.00 0.05 0.01 83 1007.1
20170722080253 85 80 9.0 12.0 0.00 0.05 0.01 83 1006.8
20170722075753 85 76 10.0 12.0 0.00 0.05 0.01 83 1006.8
20170722075253 86 62 9.0 12.0 0.00 0.05 0.01 84 1006.8
20170722074753 86 64 12.0 12.0 0.00 0.05 0.01 84 1006.7
20170722074253 86 78 10.0 11.0 0.00 0.05 0.01 84 1006.7
20170722073753 86 80 9.0 11.0 0.00 0.05 0.01 83 1006.7
20170722073253 86 74 10.0 12.0 0.00 0.05 0.01 83 1006.6
20170722072753 86 72 9.0 12.0 0.00 0.05 0.01 82 1006.6
20170722072253 86 63 11.0 11.0 0.00 0.05 0.01 82 1006.6
20170722071753 86 77 9.0 11.0 0.00 0.05 0.01 81 1006.5
20170722071253 86 75 9.0 11.0 0.00 0.05 0.01 82 1006.5
20170722070753 86 67 9.0 11.0 0.00 0.05 0.01 80 1006.5
20170722070253 86 78 7.0 11.0 0.00 0.05 0.01 80 1006.4
20170722065753 86 69 8.0 10.0 0.00 0.05 0.01 81 1006.4
20170722065253 86 76 10.0 11.0 0.00 0.05 0.01 80 1006.4
20170722064753 86 74 10.0 11.0 0.00 0.05 0.01 80 1006.2
20170722064253 86 80 7.0 11.0 0.00 0.05 0.01 82 1006.2
20170722063753 86 74 10.0 11.0 0.00 0.05 0.01 81 1006.2
20170722063253 86 76 8.0 11.0 0.00 0.05 0.01 82 1006.2
20170722062753 87 71 7.0 9.0 0.00 0.05 0.01 83 1006.2
20170722062253 87 77 6.0 10.0 0.00 0.05 0.01 84 1006.2
20170722061753 87 69 6.0 10.0 0.00 0.05 0.01 83 1006.2
20170722061253 87 65 7.0 13.0 0.00 0.05 0.01 84 1006.2
20170722060753 86 57 9.0 14.0 0.00 0.05 0.01 82 1006.2
20170722060253 86 61 12.0 14.0 0.00 0.05 0.01 80 1006.2
20170722055753 87 70 10.0 11.0 0.00 0.05 0.01 83 1006.2
20170722055253 87 63 10.0 11.0 0.00 0.05 0.01 84 1006.2
20170722054753 87 69 6.0 10.0 0.00 0.05 0.01 83 1006.2
20170722054253 87 70 7.0 11.0 0.00 0.05 0.01 83 1006.2
20170722053753 87 76 10.0 11.0 0.00 0.05 0.01 83 1006.2
20170722053253 87 73 9.0 11.0 0.00 0.05 0.01 82 1006.3
20170722052753 88 80 10.0 11.0 0.00 0.05 0.01 82 1006.3
20170722052253 88 75 9.0 11.0 0.00 0.05 0.01 82 1006.3
20170722051753 88 78 9.0 11.0 0.00 0.05 0.01 82 1006.6
20170722051253 88 71 8.0 11.0 0.00 0.05 0.01 81 1006.6
20170722050753 88 74 9.0 11.0 0.00 0.05 0.01 81 1006.6
20170722050253 88 82 7.0 10.0 0.00 0.05 0.01 82 1006.6
20170722045753 88 76 9.0 10.0 0.00 0.05 0.01 82 1006.6
20170722045253 88 76 9.0 11.0 0.00 0.05 0.01 82 1006.6
20170722044753 87 73 7.0 12.0 0.00 0.05 0.01 83 1006.8
20170722044253 87 84 11.0 12.0 0.00 0.05 0.01 82 1006.8
20170722043753 87 77 9.0 10.0 0.00 0.05 0.01 84 1006.8
20170722043253 87 63 6.0 10.0 0.00 0.05 0.01 83 1006.9
20170722042753 87 63 6.0 10.0 0.00 0.05 0.01 84 1006.9
20170722042253 87 63 9.0 12.0 0.00 0.05 0.01 85 1006.9
20170722041753 87 65 9.0 14.0 0.00 0.05 0.01 84 1006.8
20170722041253 87 55 9.0 14.0 0.00 0.05 0.01 84 1006.8
20170722040753 87 71 11.0 15.0 0.00 0.05 0.01 83 1006.8
20170722040253 87 57 12.0 15.0 0.00 0.05 0.01 83 1007.0
20170722035753 87 53 13.0 14.0 0.00 0.05 0.01 84 1007.0
20170722035253 88 63 11.0 13.0 0.00 0.05 0.01 83 1007.0
20170722034753 87 69 12.0 13.0 0.00 0.05 0.01 84 1007.2
20170722034253 87 57 11.0 13.0 0.00 0.05 0.01 83 1007.2
20170722033753 87 63 10.0 12.0 0.00 0.05 0.01 84 1007.2
20170722033253 88 60 9.0 12.0 0.00 0.05 0.01 82 1007.2
20170722032753 88 61 11.0 12.0 0.00 0.05 0.01 83 1007.2
20170722032253 88 71 9.0 13.0 0.00 0.05 0.01 83 1007.2
20170722031753 88 68 10.0 13.0 0.00 0.05 0.01 83 1007.5
20170722031253 88 80 11.0 13.0 0.00 0.05 0.01 81 1007.5
20170722030753 88 74 11.0 12.0 0.00 0.05 0.01 82 1007.5
20170722030253 88 84 10.0 13.0 0.00 0.05 0.01 83 1007.6
20170722025753 88 77 10.0 13.0 0.00 0.05 0.01 81 1007.6
20170722025253 88 78 11.0 13.0 0.00 0.05 0.01 82 1007.6
20170722024753 88 75 7.0 12.0 0.00 0.05 0.01 82 1007.7
20170722024253 88 72 9.0 14.0 0.00 0.05 0.01 82 1007.7
20170722023753 87 76 11.0 14.0 0.00 0.05 0.01 82 1007.7
20170722023253 87 72 12.0 14.0 0.00 0.05 0.01 84 1007.7
20170722022753 87 61 9.0 12.0 0.00 0.05 0.01 85 1007.7
20170722022253 87 47 8.0 14.0 0.00 0.05 0.01 86 1007.7
20170722021753 87 46 10.0 16.0 0.00 0.05 0.01 84 1007.7
20170722021253 87 44 9.0 16.0 0.00 0.05 0.01 81 1007.7
20170722020753 88 67 10.0 11.0 0.00 0.05 0.01 84 1007.7
20170722020253 88 67 9.0 10.0 0.00 0.05 0.01 82 1007.7
20170722015753 88 78 7.0 10.0 0.00 0.05 0.01 83 1007.7
20170722015253 88 81 9.0 11.0 0.00 0.05 0.01 83 1007.7
20170722014753 88 63 9.0 11.0 0.00 0.05 0.01 83 1007.9
20170722014253 88 66 9.0 11.0 0.00 0.05 0.01 84 1007.9
20170722013753 88 63 9.0 11.0 0.00 0.05 0.01 84 1007.9
20170722013253 88 64 10.0 11.0 0.00 0.05 0.01 83 1007.9
20170722012753 88 57 9.0 12.0 0.00 0.05 0.01 83 1007.9
20170722012253 88 65 9.0 12.0 0.00 0.05 0.01 82 1007.9
20170722011753 87 64 10.0 12.0 0.00 0.05 0.01 82 1007.9
20170722011253 88 77 10.0 12.0 0.00 0.05 0.01 82 1007.9
20170722010753 88 65 9.0 12.0 0.00 0.05 0.01 82 1007.9
20170722010253 88 70 9.0 12.0 0.00 0.05 0.01 84 1007.9
20170722005753 88 59 11.0 12.0 0.00 0.05 0.01 83 1007.9
20170722005253 88 77 10.0 13.0 0.00 0.05 0.01 84 1007.9
20170722004753 87 65 11.0 13.0 0.00 0.05 0.01 83 1008.0
20170722004253 87 67 11.0 13.0 0.00 0.05 0.01 83 1008.0
20170722003753 87 61 12.0 13.0 0.00 0.05 0.01 84 1008.0
20170722003253 87 76 6.0 11.0 0.00 0.05 0.01 84 1008.1
20170722002753 87 61 8.0 12.0 0.00 0.05 0.01 84 1008.1
20170722002253 87 68 11.0 12.0 0.00 0.05 0.01 85 1008.1
20170722001753 87 77 11.0 11.0 0.00 0.05 0.01 86 1008.2
20170722001253 86 68 7.0 11.0 0.00 0.05 0.01 86 1008.2
20170722000753 86 72 7.0 11.0 0.00 0.05 0.01 85 1008.2
20170722000253 86 64 6.0 10.0 0.00 0.05 0.01 87 1008.3
20170721235753 86 72 6.0 10.0 0.00 0.05 0.01 87 1008.3
20170721235253 86 52 7.0 10.0 0.00 0.05 0.01 85 1008.3
20170721234753 86 70 7.0 10.0 0.00 0.05 0.01 84 1008.3
20170721234253 87 71 7.0 11.0 0.00 0.05 0.01 85 1008.3
20170721233753 87 72 7.0 12.0 0.00 0.05 0.01 85 1008.3
20170721233253 87 59 10.0 12.0 0.00 0.05 0.01 86 1008.3
20170721232753 86 60 11.0 11.0 0.00 0.05 0.01 85 1008.3
20170721232253 86 65 11.0 11.0 0.00 0.05 0.01 85 1008.3
20170721231753 86 61 9.0 12.0 0.00 0.05 0.01 84 1008.4
20170721231253 86 51 7.0 12.0 0.00 0.05 0.01 85 1008.4
20170721230753 86 55 10.0 13.0 0.00 0.05 0.01 84 1008.4
20170721230253 86 59 10.0 13.0 0.00 0.05 0.01 84 1008.6
20170721225753 86 53 10.0 14.0 0.00 0.05 0.01 83 1008.6
20170721225253 85 48 10.0 14.0 0.00 0.05 0.01 83 1008.6
20170721224753 85 42 11.0 15.0 0.00 0.05 0.01 85 1008.3
20170721224253 85 51 13.0 17.0 0.00 0.05 0.01 85 1008.3
20170721223753 85 45 13.0 17.0 0.00 0.05 0.01 86 1008.3
20170721223253 85 55 15.0 17.0 0.00 0.05 0.01 86 1008.2
20170721222753 85 69 11.0 12.0 0.00 0.05 0.01 85 1008.2
20170721222253 86 71 9.0 12.0 0.00 0.05 0.01 84 1008.2
20170721221753 86 69 10.0 13.0 0.00 0.05 0.01 85 1008.2
20170721221253 86 59 12.0 13.0 0.00 0.05 0.01 84 1008.2
20170721220753 86 69 10.0 13.0 0.00 0.05 0.01 84 1008.2
20170721220253 86 65 11.0 13.0 0.00 0.05 0.01 84 1007.9
20170721215753 86 68 10.0 12.0 0.00 0.05 0.01 85 1007.9
20170721215253 86 69 10.0 13.0 0.00 0.05 0.01 85 1007.9
20170721214753 86 64 10.0 13.0 0.00 0.05 0.01 85 1008.0
20170721214253 85 65 10.0 14.0 0.00 0.05 0.01 86 1008.0
20170721213753 85 63 12.0 14.0 0.00 0.05 0.01 86 1008.0
20170721213253 85 69 11.0 12.0 0.00 0.05 0.01 87 1007.9
20170721212753 85 67 8.0 10.0 0.00 0.05 0.01 88 1007.9
20170721212253 84 63 7.0 11.0 0.00 0.05 0.01 87 1007.9
20170721211753 85 50 7.0 13.0 0.00 0.05 0.01 87 1007.7
20170721211253 84 57 11.0 13.0 0.00 0.05 0.01 88 1007.7
20170721210753 84 38 10.0 11.0 0.00 0.05 0.01 88 1007.7
20170721210253 84 42 6.0 9.0 0.00 0.05 0.01 88 1007.7
20170721205753 84 49 6.0 10.0 0.00 0.05 0.01 89 1007.7
20170721205253 84 46 7.0 10.0 0.00 0.05 0.01 88 1007.7
20170721204753 84 44 7.0 11.0 0.00 0.05 0.01 88 1007.5
20170721204253 84 52 7.0 11.0 0.00 0.05 0.01 88 1007.5
20170721203752 84 44 6.0 10.0 0.00 0.05 0.01 88 1007.5
20170721203253 84 44 6.0 10.0 0.00 0.05 0.01 89 1007.4
20170721202753 84 47 8.0 10.0 0.00 0.05 0.01 89 1007.4
20170721202253 84 63 9.0 10.0 0.00 0.05 0.01 89 1007.4
20170721201753 84 58 9.0 10.0 0.00 0.05 0.01 89 1007.3
20170721201253 84 65 9.0 10.0 0.00 0.05 0.01 89 1007.3
20170721200753 83 59 8.0 10.0 0.00 0.05 0.01 89 1007.3
20170721200253 84 71 7.0 11.0 0.00 0.05 0.01 89 1007.3
20170721195752 84 51 9.0 11.0 0.00 0.05 0.01 89 1007.3
20170721195253 84 57 9.0 11.0 0.00 0.05 0.01 89 1007.3
20170721194753 84 55 9.0 11.0 0.00 0.05 0.01 89 1007.3
20170721194253 84 44 6.0 11.0 0.00 0.05 0.01 89 1007.3
20170721193752 84 51 10.0 11.0 0.00 0.05 0.01 88 1007.3
20170721193253 84 57 9.0 11.0 0.00 0.05 0.01 88 1007.2
20170721192753 84 45 10.0 10.0 0.00 0.05 0.01 88 1007.2
20170721192252 83 45 7.0 11.0 0.00 0.05 0.01 88 1007.2
20170721191752 84 57 8.0 11.0 0.00 0.05 0.01 88 1007.2
20170721191252 84 63 8.0 12.0 0.00 0.05 0.01 88 1007.2
20170721190753 84 45 6.0 12.0 0.00 0.05 0.01 88 1007.2
20170721190252 84 45 9.0 11.0 0.00 0.05 0.01 89 1007.2
20170721185753 84 45 10.0 12.0 0.00 0.05 0.01 88 1007.2
20170721185253 84 56 11.0 12.0 0.00 0.05 0.01 88 1007.2
20170721184753 84 49 9.0 11.0 0.00 0.05 0.01 89 1007.2
20170721184253 84 53 10.0 11.0 0.00 0.05 0.01 88 1007.2
20170721183753 83 38 9.0 10.0 0.00 0.05 0.01 88 1007.2
20170721183252 84 58 9.0 10.0 0.00 0.05 0.01 88 1007.3
20170721182752 83 41 7.0 11.0 0.00 0.05 0.01 88 1007.3
20170721182252 83 48 10.0 11.0 0.00 0.05 0.01 88 1007.3
20170721181752 83 44 9.0 10.0 0.00 0.05 0.01 88 1007.3
20170721181252 83 50 6.0 10.0 0.00 0.05 0.01 88 1007.3
20170721180752 83 53 7.0 10.0 0.00 0.05 0.01 88 1007.3
20170721180253 83 60 6.0 9.0 0.00 0.05 0.01 89 1007.5
20170721175752 83 37 6.0 9.0 0.00 0.05 0.01 89 1007.5
20170721175253 83 34 7.0 10.0 0.00 0.05 0.01 88 1007.5
20170721174753 83 61 6.0 10.0 0.00 0.05 0.01 89 1007.7
20170721174253 83 33 9.0 11.0 0.00 0.05 0.01 88 1007.7
20170721173752 83 35 9.0 11.0 0.00 0.05 0.01 88 1007.7
20170721173253 83 40 7.0 11.0 0.00 0.05 0.01 89 1007.7
20170721172753 83 38 10.0 11.0 0.00 0.05 0.01 89 1007.7
20170721172252 84 33 7.0 11.0 0.00 0.05 0.01 89 1007.7
20170721171753 83 57 10.0 12.0 0.00 0.05 0.01 88 1007.7
20170721171252 83 56 10.0 12.0 0.00 0.05 0.01 88 1007.7
20170721170752 83 57 9.0 11.0 0.00 0.05 0.01 88 1007.7
20170721170252 84 60 10.0 11.0 0.00 0.05 0.01 88 1007.7
20170721165753 83 60 9.0 11.0 0.00 0.05 0.01 88 1007.7
20170721165253 83 59 10.0 11.0 0.00 0.05 0.01 88 1007.7
20170721164752 83 58 9.0 11.0 0.00 0.05 0.01 88 1007.8
20170721164253 84 61 8.0 11.0 0.00 0.05 0.01 88 1007.8
20170721163752 83 32 9.0 11.0 0.00 0.05 0.01 88 1007.8
20170721163253 83 54 8.0 11.0 0.00 0.05 0.01 88 1007.7
20170721162752 83 48 9.0 11.0 0.00 0.05 0.01 87 1007.7
20170721162253 83 49 10.0 11.0 0.00 0.05 0.01 88 1007.7
20170721161753 83 55 10.0 12.0 0.00 0.05 0.01 88 1008.0
20170721161253 83 36 10.0 12.0 0.00 0.05 0.01 88 1008.0
20170721160753 83 34 9.0 11.0 0.01 0.05 0.01 89 1008.0
20170721160253 83 53 10.0 11.0 0.02 0.05 0.01 89 1007.9
20170721155752 83 57 9.0 11.0 0.05 0.05 0.01 89 1007.9
20170721155252 83 51 7.0 10.0 0.05 0.05 0.01 88 1007.9
20170721154753 83 51 6.0 9.0 0.05 0.05 0.01 89 1008.1
20170721154252 83 63 6.0 7.0 0.05 0.05 0.01 88 1008.1
20170721153753 83 59 6.0 9.0 0.05 0.05 0.01 88 1008.1
20170721153253 82 62 6.0 11.0 0.05 0.05 0.01 88 1008.2
20170721152753 82 67 6.0 11.0 0.05 0.05 0.01 89 1008.2
20170721152252 82 57 9.0 10.0 0.05 0.05 0.01 90 1008.2
20170721151753 81 72 5.0 11.0 0.05 0.05 0.01 90 1008.4
20170721151253 81 75 3.0 11.0 0.05 0.05 0.01 89 1008.4
20170721150752 81 69 9.0 16.0 0.04 0.04 0.00 89 1008.4
20170721150252 82 98 6.0 18.0 0.03 0.03 0.03 86 1008.6
20170721145753 84 98 14.0 18.0 0.00 0.00 0.00 87 1008.6
20170721145252 84 65 10.0 13.0 0.00 0.00 0.00 86 1008.6
20170721144752 84 65 11.0 13.0 0.00 0.00 0.00 87 1008.7
20170721144252 84 64 10.0 13.0 0.00 0.00 0.00 87 1008.7
20170721143752 84 72 11.0 13.0 0.00 0.00 0.00 87 1008.7
20170721143252 84 65 10.0 13.0 0.00 0.00 0.00 87 1008.8
20170721142752 85 58 12.0 13.0 0.00 0.00 0.00 88 1008.8
20170721142253 84 63 11.0 13.0 0.00 0.00 0.00 87 1008.8
20170721141753 84 59 12.0 13.0 0.00 0.00 0.00 86 1009.1
20170721141253 84 63 11.0 13.0 0.00 0.00 0.00 86 1009.1
20170721140752 84 59 11.0 13.0 0.00 0.00 0.00 87 1009.1
20170721140253 84 59 10.0 13.0 0.00 0.00 0.00 86 1009.3
20170721135752 84 63 13.0 13.0 0.00 0.00 0.00 86 1009.3
20170721135252 84 59 12.0 14.0 0.00 0.00 0.00 86 1009.3
20170721134753 84 55 12.0 14.0 0.00 0.00 0.00 86 1009.3
20170721134252 84 63 12.0 14.0 0.00 0.00 0.00 86 1009.3
20170721133752 84 62 13.0 15.0 0.00 0.00 0.00 86 1009.3
20170721133252 84 69 12.0 15.0 0.00 0.00 0.00 87 1009.7
20170721132753 84 53 10.0 15.0 0.00 0.00 0.00 87 1009.7
20170721132252 84 53 12.0 15.0 0.00 0.00 0.00 87 1009.7
20170721131752 85 66 14.0 14.0 0.00 0.00 0.00 87 1009.8
20170721131252 85 62 12.0 14.0 0.00 0.00 0.00 87 1009.8
20170721130752 84 59 11.0 14.0 0.00 0.00 0.00 87 1009.8
20170721130252 85 57 11.0 14.0 0.00 0.00 0.00 87 1009.8
20170721125753 85 59 11.0 13.0 0.00 0.00 0.00 87 1009.8
20170721125252 85 47 12.0 13.0 0.00 0.00 0.00 87 1009.8
20170721124752 85 52 10.0 14.0 0.00 0.00 0.00 87 1009.9
20170721124253 85 55 12.0 14.0 0.00 0.00 0.00 86 1009.9
20170721123752 84 67 12.0 14.0 0.00 0.00 0.00 86 1009.9